Weather History for Cleveland, OH

Change the Weather History Date:

Thursday, July 25, 2013

  Actual Average Record
Temperature  
Mean Temperature 65 °F 73 °F  
Max Temperature 75 °F 82 °F 99 °F (1941)
Min Temperature 55 °F 65 °F 47 °F (1953)
Degree Days  
Heating Degree Days 0 0  
Month to date heating degree days 1 0  
Since 1 June heating degree days 40 42  
Since 1 July heating degree days 1 0  
Cooling Degree Days 0 9  
Month to date cooling degree days 270 220  
Year to date cooling degree days 548 447  
Since 1 June cooling degree days 434 388  
Growing Degree Days 15 (Base 50)    
Moisture  
Dew Point 50 °F    
Average Humidity 64    
Maximum Humidity 86    
Minimum Humidity 41    
Precipitation  
Precipitation 0.00 in 0.12 in 0.65 in (2007)
Month to date precipitation 4.66 2.76  
Year to date precipitation 25.15 21.33  
Snow  
Snow 0.00 in 0.00 in - ()
Month to date snowfall 0.0 0.0  
Since 1 June snowfall 0.0 0.0  
Since 1 July snowfall 0.0 0.0  
Snow Depth 0.00 in    
Sea Level Pressure  
Sea Level Pressure 30.10 in    
Wind  
Wind Speed 8 mph (ENE)    
Max Wind Speed 18 mph    
Max Gust Speed 23 mph    
Visibility 10 miles    
Events      
T = Trace of Precipitation, MM = Missing Value Source: NWS Daily Summary

Daily Weather History Graph

Daily Weather History Graph

Search for Another Location

Airport:

Trip Planner

Search our weather history database for the weather conditions in past years. The results will help you decide how hot, cold, wet, or windy it might be!

Date:

Astronomy

Jul. 25, 2013 Rise Set
Actual Time 6:15 AM EDT 8:51 PM EDT
Civil Twilight 5:44 AM EDT 9:23 PM EDT
Nautical Twilight 5:04 AM EDT 10:02 PM EDT
Astronomical Twilight 4:19 AM EDT 10:47 PM EDT
Moon 10:27 PM EDT (7/25) 9:46 AM EDT (7/25)
Length of Visible Light 15h 39m
Length of Day
14h 35m
Waning Gibbous, 88% of the Moon is Illuminated
Jul 25
Waning Gibbous
Jul 29
Last Quarter
Aug 6
New
Aug 14
First Quarter
Aug 20
Full

Hourly Weather History & Observations

Time (EDT) Temp. Dew Point Humidity Pressure Visibility Wind Dir Wind Speed Gust Speed Precip Events Conditions
12:51 AM 57.0 °F 51.1 °F 81% 30.05 in 10.0 mi Calm Calm - N/A   Partly Cloudy
1:51 AM 57.0 °F 51.1 °F 81% 30.06 in 10.0 mi Calm Calm - N/A   Partly Cloudy
2:51 AM 55.9 °F 51.1 °F 84% 30.06 in 10.0 mi Calm Calm - N/A   Scattered Clouds
3:51 AM 55.9 °F 52.0 °F 87% 30.06 in 10.0 mi Calm Calm - N/A   Mostly Cloudy
4:51 AM 57.0 °F 52.0 °F 83% 30.07 in 10.0 mi Calm Calm - N/A   Mostly Cloudy
5:51 AM 57.9 °F 53.1 °F 84% 30.07 in 10.0 mi Calm Calm - N/A   Mostly Cloudy
6:51 AM 59.0 °F 48.9 °F 69% 30.09 in 10.0 mi East 5.8 mph - N/A   Partly Cloudy
7:51 AM 62.1 °F 46.9 °F 58% 30.10 in 10.0 mi East 11.5 mph - N/A   Partly Cloudy
8:51 AM 64.9 °F 46.0 °F 50% 30.10 in 10.0 mi ESE 13.8 mph - N/A   Clear
9:51 AM 66.9 °F 46.0 °F 47% 30.11 in 10.0 mi ESE 13.8 mph - N/A   Clear
10:51 AM 69.1 °F 46.9 °F 45% 30.11 in 10.0 mi ENE 10.4 mph - N/A   Clear
11:51 AM 71.1 °F 46.9 °F 42% 30.11 in 10.0 mi East 4.6 mph - N/A   Clear
12:51 PM 73.0 °F 48.9 °F 42% 30.11 in 10.0 mi East 9.2 mph - N/A   Clear
1:51 PM 75.0 °F 51.1 °F 43% 30.10 in 10.0 mi North 10.4 mph - N/A   Clear
2:51 PM 75.0 °F 53.1 °F 46% 30.11 in 10.0 mi North 11.5 mph - N/A   Clear
3:51 PM 73.9 °F 52.0 °F 46% 30.12 in 10.0 mi North 10.4 mph 18.4 mph N/A   Clear
4:51 PM 73.9 °F 53.1 °F 48% 30.11 in 10.0 mi NNE 13.8 mph - N/A   Partly Cloudy
5:51 PM 73.0 °F 53.1 °F 49% 30.10 in 10.0 mi NE 16.1 mph - N/A   Partly Cloudy
6:51 PM 72.0 °F 50.0 °F 46% 30.10 in 10.0 mi NNE 18.4 mph - N/A   Partly Cloudy
7:51 PM 71.1 °F 50.0 °F 47% 30.10 in 10.0 mi NNE 10.4 mph - N/A   Partly Cloudy
8:51 PM 69.1 °F 50.0 °F 51% 30.11 in 10.0 mi NNE 6.9 mph - N/A   Partly Cloudy
9:51 PM 68.0 °F 46.9 °F 47% 30.11 in 10.0 mi East 9.2 mph - N/A   Partly Cloudy
10:51 PM 66.0 °F 50.0 °F 56% 30.12 in 10.0 mi East 5.8 mph - N/A   Partly Cloudy
11:51 PM 64.9 °F 50.0 °F 58% 30.12 in 10.0 mi South 3.5 mph - N/A   Partly Cloudy